Regional Weather Roundup
Issued by NWS

Home | Current Version | Previous Version | Graphics & Text | Print | Product List | Glossary On
Versions: 1 2 3 4 5 6 7 8 9 10 11 12 13 14 15 16 17 18 19 20 21 22 23 24 25 26 27 28 29 30 31 32 33 34 35 36 37 38 39 40 41 42 43 44 45 46 47 48 49 50
000
ASUS43 KMKX 291459
RWRWI

WISCONSIN REGIONAL WEATHER ROUNDUP
NATIONAL WEATHER SERVICE MILWAUKEE/SULLIVAN WI
900 AM CST THU JAN 29 2015

NOTE: "FAIR" INDICATES FEW OR NO CLOUDS BELOW 12,000 FEET WITH NO
SIGNIFICANT WEATHER AND/OR OBSTRUCTIONS TO VISIBILITY.

WIZ001-002-006>008-014>016-023>028-291600-
NORTHWEST WISCONSIN

CITY           SKY/WX    TMP DP  RH WIND       PRES   REMARKS
SUPERIOR ARPT  MOSUNNY   29  20  71 N15G25    30.09R WCI  17
ASHLAND        CLOUDY    30  23  75 NW15      30.04R WCI  19
HAYWARD        CLOUDY    30  22  72 N8G20     30.03R WCI  22
SIREN          CLOUDY    31  24  74 N18G28    30.08R WCI  19
CUMBERLAND     CLOUDY    30  25  80 NW14      30.03R WCI  20
RICE LAKE      CLOUDY    31  25  78 NW14G22   30.04R WCI  21
CHETEK         CLOUDY    31  25  80 NW12G20   30.03R WCI  22
LADYSMITH      CLOUDY    31  26  81 NW18      30.00R WCI  19
EAU CLAIRE     NOT AVBL
MENOMONIE      CLOUDY    33  27  78 NW14G22   30.05R WCI  23
NEW RICHMOND   CLOUDY    31  28  85 NW15G21   30.08R WCI  21
OSCEOLA        CLOUDY    32  29  90 NW14G21   30.12R WCI  22
$$

WIZ003>005-009-010-017-018-291600-
NORTH CENTRAL WISCONSIN

CITY           SKY/WX    TMP DP  RH WIND       PRES   REMARKS
MANITOWISH WTR CLOUDY    26  24  89 N14G22    29.91R WCI  15
ARBOR VITAE    CLOUDY    29  25  83 N22G30    29.90R WCI  16
WOODRUFF       CLOUDY    29  25  83 N22G30    29.90R WCI  16
RHINELANDER    CLOUDY    27  22  81 NW14G30   29.89R WCI  16
EAGLE RIVER    CLOUDY    27  21  79 N22G30    29.87R WCI  13
LAND O LAKES   CLOUDY    28  24  86 NW13G28   29.87R WCI  17
PHILLIPS       CLOUDY    28  23  84 NW15G23   29.93R WCI  16
TOMAHAWK       CLOUDY    28  22  78 NW12G17   29.91R WCI  18
MEDFORD        CLOUDY    28  25  86 NW18G24   29.92R WCI  15
MERRILL        CLOUDY    30  25  82 N13G26    29.90R WCI  20
$$

WIZ029-030-035-036-043>047-291600-
CENTRAL WISCONSIN

CITY           SKY/WX    TMP DP  RH WIND       PRES   REMARKS
WAUSAU         CLOUDY    30  25  81 NW12G28   29.89R WCI  20
MOSINEE        NOT AVBL
MARSHFIELD     CLOUDY    30  26  85 NW17      29.93R WCI  18
STEVENS POINT  CLOUDY    28  25  89 NW10      29.91R FOG     WCI  18
WAUPACA        CLOUDY    32  27  80 NW12G18   29.89R WCI  23
WAUTOMA        NOT AVBL
WISC RAPIDS    CLOUDY    30  25  81 NW13      29.94R WCI  20
CAMP DOUGLAS   FRZ DRZL  32  32 100 NW12      29.96R FOG     WCI  23
$$

WIZ011>013-019>022-031-037>040-048>050-291600-
NORTHEAST WISCONSIN

CITY           SKY/WX    TMP DP  RH WIND       PRES   REMARKS
ANTIGO         CLOUDY    27  24  89 NW17G24   29.86R WCI  15
SHAWANO        CLOUDY    32  26  80 NW8       29.87R WCI  25
OCONTO         CLOUDY    31  26  83 MISG      29.84R
STURGEON BAY   CLOUDY    28  25  86 NW16      29.84R WCI  17
GREEN BAY      CLOUDY    31  25  78 NW15      29.86R HAZE    WCI  20
MANITOWOC      NOT AVBL
APPLETON       CLOUDY    30  25  80 NW14G24   29.87R WCI  20
CLINTONVILLE   CLOUDY    32  27  80 NW12      29.87R WCI  23
OSHKOSH        CLOUDY    31  25  78 NW14      29.87R HAZE    WCI  21
$$

WIZ032>034-041-042-053>061-291600-
SOUTHWEST WISCONSIN

CITY           SKY/WX    TMP DP  RH WIND       PRES   REMARKS
LA CROSSE      LGT RAIN  35  30  82 NW18G24   30.02R WCI  24
SPARTA         CLOUDY    32  30  91 NW12G21   29.99R FOG     WCI  23
VIROQUA        CLOUDY    31  31 100 NW16G23   29.96R WCI  20
BOSCOBEL       CLOUDY    35  28  75 NW12G18   30.00R WCI  27
PRAIRIE DU CHI CLOUDY    34  28  79 NW16      30.00R WCI  24
PLATTEVILLE    CLOUDY    32  29  87 NW13G24   29.95R WCI  22
$$

WIZ056-057-062-063-064-067-068-291600-
SOUTH CENTRAL WISCONSIN

CITY           SKY/WX    TMP DP  RH WIND       PRES   REMARKS
REEDSBURG      CLOUDY    31  27  88 NW12G21   29.94R WCI  21
BARABOO/DELLS  CLOUDY    30  26  86 NW14G20   29.92R FOG     WCI  20
LONE ROCK      NOT AVBL
MINERAL POINT  CLOUDY    32  30  93 NW17G24   29.93R WCI  21
MADISON        CLOUDY    31  25  78 NW13G24   29.91R WCI  21
MIDDLETON      CLOUDY    32  27  80 NW17G23   29.91R WCI  21
WATERTOWN      CLOUDY    30  28  90 NW13G18   29.86R FOG     WCI  20
MONROE         CLOUDY    32  28  86 NW12G24   29.90R WCI  23
JANESVILLE     CLOUDY    34  28  80 NW18      29.89R WCI  23
$$

WIZ051-052-058>065-066-070>072-291600-
SOUTHEAST WISCONSIN

CITY           SKY/WX    TMP DP  RH WIND       PRES   REMARKS
MILWAUKEE      CLOUDY    32  25  75 NW15      29.83R HAZE    WCI  22
WAUKESHA       CLOUDY    28  27  93 NW16      29.85R WCI  17
MILWAUKEE/TIMM LGT SNOW  30  27  86 NW13G21   29.84R WCI  20
RACINE         CLOUDY    33  25  72 NW16G23   29.84R HAZE    WCI  23
BURLINGTON     CLOUDY    30  25  82 NW13G24   29.84R WCI  20
KENOSHA        CLOUDY    33  26  75 NW17G26   29.83R HAZE    WCI  22
FOND DU LAC    CLOUDY    31  25  78 NW18G25   29.87R WCI  19
SHEBOYGAN      CLOUDY    30  25  81 NW16G22   29.84R HAZE    WCI  19
WEST BEND      MIX PCPN  30  27  86 NW16G22   29.84R WCI  19
JUNEAU         CLOUDY    29  26  86 NW13G20   29.87R FOG     WCI  19
$$

LSZ147-162-291600-
LAKE SUPERIOR

STATION/POSITION TIME  TEMP    WIND        PRES    WAVE
                       AIR SEA DIR/SP/G            HT/PER
                 (UTC) (F)     (DEG/KT/KT) (MB)    (FT/S)
DEVILS ISLAND    1400   29     340/ 23/ 25 1016.9R
PORT WING        1440   29     330/ 25/ 29 1018.3R
SAXON HARBOR     1440   31     320/ 20/ 24 1015.9R
$$

LMZ867-665-643>646-291600-
LAKE MICHIGAN

STATION/POSITION TIME  TEMP    WIND        PRES    WAVE
                       AIR SEA DIR/SP/G            HT/PER
                 (UTC) (F)     (DEG/KT/KT) (MB)    (FT/S)
NORTHPORT PIER   1400   29     310/ 12/ 15 1009.1R
SISTER BAY       1413   29     340/  9/ 10   N/A
KEWAUNEE LAKESHO 1400   30     320/  9/ 14 1008.7R
SHEBOYGAN LAKESH 1400   31     320/ 15/ 18 1010.5R
PORT WASHINGTON  1400   32     320/ 11/ 18 1010.5
MILWAUKEE LAKESH 1400   33     330/ 13/ 20   N/A
KENOSHA   LAKESH 1400   33     330/ 15/ 19 1009.1R
$$

TC  - TEMPERATURE IN CELSIUS
VSB - VISIBILITY IN STATUTE MILES
WCI - WIND CHILL INDEX
HX  - HEAT INDEX




USA.gov is the U.S. government's official web portal to all federal, state and local government web resources and services.